TimeEDT,TemperatureF,Dew PointF,Humidity,Sea Level PressureIn,VisibilityMPH,Wind Direction,Wind SpeedMPH,Gust SpeedMPH,PrecipitationIn,Events,Conditions,WindDirDegrees,DateUTC
12:53 AM,43.0,21.0,42,29.86,10.0,SSW,3.5,-,N/A,,Clear,210,2012-11-02 04:53:00
1:53 AM,42.1,21.9,45,29.85,10.0,Calm,Calm,-,N/A,,Clear,0,2012-11-02 05:53:00
2:53 AM,46.9,19.0,33,29.85,10.0,Calm,Calm,-,N/A,,Clear,0,2012-11-02 06:53:00
3:53 AM,48.9,24.1,38,29.85,10.0,West,8.1,-,N/A,,Overcast,270,2012-11-02 07:53:00
4:53 AM,48.9,25.0,39,29.84,10.0,SW,3.5,-,N/A,,Overcast,220,2012-11-02 08:53:00
5:53 AM,46.9,26.1,44,29.84,10.0,South,3.5,-,N/A,,Overcast,190,2012-11-02 09:53:00
6:53 AM,48.0,25.0,41,29.84,10.0,South,5.8,-,N/A,,Mostly Cloudy,190,2012-11-02 10:53:00
7:53 AM,48.0,26.1,42,29.84,10.0,SSW,6.9,-,N/A,,Partly Cloudy,210,2012-11-02 11:53:00
8:53 AM,48.0,28.0,46,29.85,10.0,SSW,8.1,-,N/A,,Mostly Cloudy,200,2012-11-02 12:53:00
9:53 AM,53.1,32.0,45,29.84,10.0,SSW,8.1,-,N/A,,Scattered Clouds,200,2012-11-02 13:53:00
10:53 AM,60.1,34.0,38,29.82,10.0,SSW,13.8,20.7,N/A,,Overcast,210,2012-11-02 14:53:00
11:53 AM,60.1,34.0,38,29.81,10.0,SW,8.1,-,N/A,,Overcast,230,2012-11-02 15:53:00
12:53 PM,59.0,35.1,41,29.81,10.0,SSW,4.6,-,N/A,,Overcast,200,2012-11-02 16:53:00
1:53 PM,62.1,37.9,41,29.81,10.0,North,3.5,-,N/A,,Overcast,360,2012-11-02 17:53:00
2:53 PM,64.9,37.0,36,29.80,10.0,NW,11.5,-,N/A,,Partly Cloudy,310,2012-11-02 18:53:00
3:53 PM,63.0,36.0,37,29.81,10.0,NW,8.1,-,N/A,,Clear,310,2012-11-02 19:53:00
4:53 PM,63.0,28.9,28,29.83,10.0,NW,8.1,17.3,N/A,,Clear,320,2012-11-02 20:53:00
5:53 PM,61.0,30.0,31,29.85,10.0,North,5.8,-,N/A,,Clear,350,2012-11-02 21:53:00
6:53 PM,57.0,30.0,36,29.88,10.0,NW,4.6,-,N/A,,Clear,320,2012-11-02 22:53:00
7:53 PM,55.0,30.0,38,29.90,10.0,NW,4.6,-,N/A,,Clear,310,2012-11-02 23:53:00
8:53 PM,53.1,30.9,43,29.92,10.0,NW,5.8,-,N/A,,Clear,320,2012-11-03 00:53:00
9:53 PM,48.0,32.0,54,29.93,10.0,Calm,Calm,-,N/A,,Clear,0,2012-11-03 01:53:00
10:53 PM,48.9,30.9,50,29.94,10.0,Calm,Calm,-,N/A,,Clear,0,2012-11-03 02:53:00
11:53 PM,51.1,28.9,43,29.95,10.0,NW,3.5,-,N/A,,Clear,310,2012-11-03 03:53:00